TimeEDT,TemperatureF,Dew PointF,Humidity,Sea Level PressureIn,VisibilityMPH,Wind Direction,Wind SpeedMPH,Gust SpeedMPH,PrecipitationIn,Events,Conditions,WindDirDegrees,DateUTC
12:14 AM,42.8,37.4,81,29.65,10.0,WNW,11.5,16.1,N/A,,Clear,300,2011-10-18 04:14:00
12:34 AM,42.8,37.4,81,29.65,10.0,WNW,11.5,18.4,N/A,,Scattered Clouds,300,2011-10-18 04:34:00
12:55 AM,42.8,37.4,81,29.65,10.0,WNW,12.7,17.3,N/A,,Mostly Cloudy,300,2011-10-18 04:55:00
1:14 AM,42.8,37.4,81,29.65,10.0,NW,12.7,19.6,N/A,,Mostly Cloudy,310,2011-10-18 05:14:00
1:34 AM,42.8,37.4,81,29.66,10.0,NW,10.4,18.4,N/A,,Overcast,310,2011-10-18 05:34:00
1:54 AM,42.8,37.4,81,29.66,10.0,WNW,11.5,17.3,N/A,,Overcast,300,2011-10-18 05:54:00
2:14 AM,42.8,37.4,81,29.66,10.0,WNW,9.2,-,N/A,,Overcast,300,2011-10-18 06:14:00
2:34 AM,42.8,37.4,81,29.66,10.0,NW,9.2,17.3,N/A,,Overcast,320,2011-10-18 06:34:00
2:54 AM,42.8,37.4,81,29.66,10.0,NW,10.4,-,N/A,,Overcast,310,2011-10-18 06:54:00
3:14 AM,42.8,37.4,81,29.67,10.0,NW,11.5,-,N/A,,Overcast,310,2011-10-18 07:14:00
3:54 AM,42.8,37.4,81,29.68,10.0,WNW,10.4,16.1,N/A,,Overcast,300,2011-10-18 07:54:00
4:14 AM,42.8,37.4,81,29.68,10.0,NW,11.5,18.4,N/A,,Overcast,320,2011-10-18 08:14:00
4:35 AM,42.8,37.4,81,29.69,10.0,NW,10.4,17.3,N/A,,Overcast,320,2011-10-18 08:35:00
4:54 AM,42.8,37.4,81,29.69,10.0,WNW,11.5,17.3,N/A,,Overcast,300,2011-10-18 08:54:00
5:14 AM,42.8,37.4,81,29.69,10.0,NW,10.4,17.3,N/A,,Overcast,310,2011-10-18 09:14:00
5:35 AM,42.8,37.4,81,29.69,10.0,NW,9.2,18.4,N/A,,Overcast,320,2011-10-18 09:35:00
5:54 AM,41.0,37.4,87,29.70,10.0,NW,8.1,16.1,N/A,,Overcast,310,2011-10-18 09:54:00
6:14 AM,41.0,37.4,87,29.70,10.0,WNW,9.2,16.1,N/A,,Scattered Clouds,300,2011-10-18 10:14:00
6:54 AM,41.0,37.4,87,29.71,10.0,WNW,10.4,-,N/A,,Scattered Clouds,300,2011-10-18 10:54:00
7:14 AM,41.0,37.4,87,29.72,10.0,WNW,9.2,-,N/A,,Mostly Cloudy,300,2011-10-18 11:14:00
7:34 AM,41.0,37.4,87,29.73,10.0,WNW,9.2,-,N/A,,Overcast,300,2011-10-18 11:34:00
7:54 AM,41.0,35.6,81,29.74,10.0,NW,6.9,-,N/A,,Scattered Clouds,310,2011-10-18 11:54:00
8:14 AM,41.0,37.4,87,29.74,10.0,NW,10.4,-,N/A,,Clear,310,2011-10-18 12:14:00
8:35 AM,41.0,37.4,87,29.75,10.0,NW,10.4,-,N/A,,Scattered Clouds,320,2011-10-18 12:35:00
8:54 AM,41.0,37.4,87,29.75,10.0,WNW,9.2,-,N/A,,Scattered Clouds,300,2011-10-18 12:54:00
9:15 AM,41.0,37.4,87,29.76,10.0,NW,8.1,-,N/A,,Scattered Clouds,320,2011-10-18 13:15:00
9:34 AM,41.0,35.6,81,29.77,10.0,NW,10.4,-,N/A,,Scattered Clouds,310,2011-10-18 13:34:00
10:14 AM,42.8,35.6,76,29.77,10.0,WNW,8.1,-,N/A,,Scattered Clouds,300,2011-10-18 14:14:00
10:34 AM,42.8,35.6,76,29.77,10.0,NW,9.2,-,N/A,,Scattered Clouds,310,2011-10-18 14:34:00
10:55 AM,44.6,35.6,71,29.77,10.0,WNW,8.1,-,N/A,,Scattered Clouds,300,2011-10-18 14:55:00
11:14 AM,44.6,37.4,76,29.78,10.0,WNW,8.1,-,N/A,,Mostly Cloudy,300,2011-10-18 15:14:00
11:34 AM,44.6,35.6,71,29.78,10.0,NW,6.9,-,N/A,,Overcast,310,2011-10-18 15:34:00
12:14 PM,46.4,35.6,66,29.80,10.0,NW,8.1,-,N/A,,Mostly Cloudy,320,2011-10-18 16:14:00
12:34 PM,46.4,35.6,66,29.80,10.0,NNW,9.2,-,N/A,,Overcast,330,2011-10-18 16:34:00
12:54 PM,46.4,35.6,66,29.80,10.0,NNW,4.6,-,N/A,,Overcast,330,2011-10-18 16:54:00
1:34 PM,46.4,33.8,62,29.81,10.0,NW,6.9,-,N/A,,Mostly Cloudy,320,2011-10-18 17:34:00
1:54 PM,46.4,35.6,66,29.81,10.0,WNW,6.9,-,N/A,,Mostly Cloudy,300,2011-10-18 17:54:00
2:14 PM,44.6,37.4,76,29.81,10.0,NW,3.5,-,N/A,Rain,Light Rain,320,2011-10-18 18:14:00
2:54 PM,46.4,37.4,71,29.81,10.0,NNW,9.2,-,N/A,,Overcast,340,2011-10-18 18:54:00
3:14 PM,46.4,35.6,66,29.81,10.0,WNW,6.9,-,N/A,Rain,Light Rain,300,2011-10-18 19:14:00
3:34 PM,46.4,37.4,71,29.81,10.0,NNW,4.6,-,N/A,,Overcast,330,2011-10-18 19:34:00
4:14 PM,46.4,35.6,66,29.82,10.0,North,9.2,16.1,N/A,,Mostly Cloudy,350,2011-10-18 20:14:00
4:35 PM,46.4,35.6,66,29.83,10.0,North,11.5,16.1,N/A,,Mostly Cloudy,360,2011-10-18 20:35:00
4:54 PM,44.6,35.6,71,29.83,10.0,North,8.1,-,N/A,,Mostly Cloudy,350,2011-10-18 20:54:00
5:14 PM,46.4,35.6,66,29.83,10.0,NNE,8.1,-,N/A,,Overcast,20,2011-10-18 21:14:00
5:34 PM,44.6,33.8,66,29.84,10.0,North,5.8,-,N/A,,Overcast,10,2011-10-18 21:34:00
5:54 PM,44.6,35.6,71,29.85,10.0,North,6.9,-,N/A,,Mostly Cloudy,360,2011-10-18 21:54:00
6:15 PM,44.6,33.8,66,29.85,10.0,North,6.9,-,N/A,,Scattered Clouds,350,2011-10-18 22:15:00
6:34 PM,42.8,33.8,70,29.86,10.0,North,4.6,-,N/A,,Mostly Cloudy,350,2011-10-18 22:34:00
7:14 PM,42.8,33.8,70,29.87,10.0,North,4.6,-,N/A,,Clear,350,2011-10-18 23:14:00
7:34 PM,41.0,33.8,76,29.88,10.0,North,4.6,-,N/A,,Clear,350,2011-10-18 23:34:00
8:14 PM,41.0,33.8,76,29.89,10.0,North,6.9,-,N/A,,Clear,350,2011-10-19 00:14:00
8:34 PM,41.0,33.8,76,29.89,10.0,North,8.1,-,N/A,,Clear,350,2011-10-19 00:34:00
9:14 PM,41.0,35.6,81,29.89,10.0,North,9.2,-,N/A,,Clear,350,2011-10-19 01:14:00
9:35 PM,41.0,33.8,76,29.89,10.0,North,8.1,-,N/A,,Clear,350,2011-10-19 01:35:00
9:54 PM,41.0,35.6,81,29.90,10.0,North,8.1,-,N/A,,Clear,350,2011-10-19 01:54:00
10:14 PM,39.2,35.6,87,29.90,10.0,NNW,6.9,-,N/A,,Scattered Clouds,340,2011-10-19 02:14:00
10:35 PM,39.2,35.6,87,29.91,10.0,North,6.9,-,N/A,,Overcast,360,2011-10-19 02:35:00
10:54 PM,39.2,35.6,87,29.91,10.0,North,4.6,-,N/A,,Overcast,350,2011-10-19 02:54:00
11:14 PM,39.2,35.6,87,29.91,10.0,North,5.8,-,N/A,,Mostly Cloudy,350,2011-10-19 03:14:00
11:35 PM,37.4,35.6,93,29.91,10.0,NNW,4.6,-,N/A,,Scattered Clouds,340,2011-10-19 03:35:00
11:54 PM,37.4,35.6,93,29.91,10.0,North,4.6,-,N/A,,Mostly Cloudy,350,2011-10-19 03:54:00